Theta_e
308 308 307 306 305 305 304 304 303 298 297 297 297 296 296 296 294 288 289 290 290 290 290 291 291 291 291 291 291 291 290 290 290 290 290 292 294 294
306 304 305 306 305 304 304 304 304 303 298 297 297 297 296 295 293 289 289 290 290 289 290 290 290 291 291 291 291 290 290 290 289 289 289 290 290 291
301 302 302 303 303 304 303 304 303 300 301 297 297 296 295 295 294 290 289 289 289 289 289 289 290 290 290 290 290 290 290 290 289 289 288 289 289 289
299 300 301 302 303 303 303 303 302 301 302 299 296 296 295 294 293 291 290 288 288 288 288 289 290 290 290 290 290 290 290 289 289 288 288 288 288 288
299 299 300 301 301 301 302 303 302 302 299 299 296 295 295 294 292 291 289 290 289 287 288 289 289 290 290 290 289 289 290 289 289 288 288 288 287 287
299 299 298 297 297 299 300 300 302 300 300 299 297 295 295 293 292 291 289 290 290 288 287 288 288 288 289 289 289 289 289 289 288 287 288 288 287 287
297 297 296 297 298 299 300 301 302 301 301 299 296 295 294 293 292 291 290 290 289 288 287 287 288 288 288 288 287 288 288 287 287 287 287 287 287 287
295 295 296 297 298 299 300 301 301 301 300 298 297 296 295 293 292 291 291 289 288 288 287 287 288 288 288 288 287 287 287 286 286 286 286 287 286 286
295 295 296 295 297 299 299 301 300 300 300 299 297 296 295 293 292 292 291 291 290 290 288 288 287 288 288 288 287 286 286 286 286 285 285 285 285 285
295 294 295 295 296 298 297 300 300 298 297 297 297 297 295 293 292 292 292 291 291 290 289 289 288 288 288 288 287 287 286 286 286 285 285 284 284 284
297 297 296 294 295 296 297 299 299 298 297 296 296 295 294 293 293 292 292 291 290 290 289 289 288 288 288 287 287 287 286 286 285 285 285 284 284 283
296 294 294 294 293 294 296 297 297 297 297 297 296 294 293 293 292 292 291 291 291 290 289 289 289 288 288 287 287 286 285 285 285 284 284 283 283 283
294 292 292 292 291 292 294 295 296 297 297 295 295 294 293 293 292 291 292 291 291 291 290 289 289 288 288 287 286 286 286 285 284 284 284 283 282 282
294 292 291 290 289 289 290 291 294 294 295 295 293 293 293 292 292 291 291 291 291 290 290 289 288 287 286 287 286 286 286 285 285 284 283 283 283 282
293 291 290 290 292 291 290 289 289 289 291 290 292 292 292 292 291 291 290 290 290 289 289 288 287 287 286 285 285 285 285 285 285 285 284 283 283 282
292 291 290 291 290 290 290 288 287 288 288 288 288 288 290 290 289 289 289 288 288 288 288 288 287 287 285 284 284 284 285 285 285 284 283 283 282 282
291 290 289 289 288 288 287 286 287 286 285 286 286 286 286 286 286 285 285 285 285 285 285 286 285 285 284 283 283 283 284 284 284 284 283 283 282 282
291 291 290 288 288 287 286 285 284 284 284 284 284 284 285 285 285 284 284 284 284 284 284 284 283 283 283 282 282 282 282 283 283 283 283 282 282 282
290 290 290 289 290 290 288 287 287 286 284 283 283 283 284 284 285 285 285 285 285 284 283 283 283 283 283 283 282 283 283 282 282 282 282 282 282 282
290 290 289 289 289 289 288 287 286 284 284 283 282 282 283 284 285 285 285 285 285 284 284 284 284 284 284 284 284 284 283 283 282 282 282 282 282 282
290 290 289 289 289 289 288 287 287 288 286 285 283 282 282 283 285 285 285 285 285 284 284 284 283 283 283 284 283 283 283 283 283 283 283 283 282 281
291 291 290 289 289 289 288 288 287 287 287 286 285 284 283 283 283 284 284 284 284 284 283 283 283 283 283 283 283 283 283 283 283 283 282 282 281 281
291 290 290 289 288 288 288 288 287 287 287 286 285 284 284 284 283 283 283 283 283 283 283 283 283 283 283 283 283 283 283 283 283 283 283 282 281 281
Wind_Speed
23 26 29 31 28 25 28 23 23 23 28 26 28 22 18 17 13 13 14 12 9 8 7 6 6 7 7 6 6 7 5 8 9 11 13 14 15 16
30 21 31 26 32 24 16 23 21 30 29 31 33 25 20 18 13 11 13 11 10 8 8 7 6 6 6 7 7 7 7 8 7 7 9 11 13 14
37 23 25 24 23 27 25 15 30 31 25 31 29 23 23 24 17 14 13 12 11 10 9 8 7 6 6 6 8 7 8 7 6 7 6 7 9 9
37 37 26 24 28 29 25 16 32 35 31 25 31 29 27 24 16 15 12 14 11 10 9 9 7 6 6 6 6 6 6 6 5 5 5 6 7 8
34 37 40 29 26 26 24 23 21 31 30 25 33 31 28 22 15 11 14 15 12 9 9 10 8 6 5 5 5 4 5 5 4 3 4 5 6 7
18 18 20 20 21 24 22 26 25 35 30 32 31 35 29 24 17 19 21 17 11 10 10 10 9 6 6 5 4 3 4 3 2 2 3 4 4 6
18 20 21 22 23 25 26 28 27 31 31 36 38 36 34 31 28 26 22 18 13 9 11 10 7 6 6 7 5 4 3 3 2 2 2 2 3 5
20 24 22 26 27 26 27 26 27 31 31 38 38 38 35 34 31 30 25 23 21 16 10 10 8 7 8 8 4 3 3 3 1 1 1 2 2 3
28 25 26 25 28 29 28 24 21 24 26 28 32 35 35 34 31 31 29 28 24 10 14 12 10 8 8 4 3 4 3 1 1 1 1 0 1 1
31 28 29 27 28 30 27 27 24 28 27 25 23 21 26 27 28 31 30 23 17 14 13 14 13 9 5 3 3 6 7 4 2 1 2 2 1 2
29 27 24 26 29 29 30 30 26 26 27 24 21 19 18 18 22 29 30 28 28 23 20 15 17 13 9 8 8 9 8 7 5 4 4 4 4 3
26 26 29 27 28 31 30 32 28 28 27 25 25 22 22 21 20 29 30 33 33 24 27 26 19 18 12 15 14 12 11 8 7 6 6 6 6 5
28 28 27 26 25 29 32 32 32 31 30 24 24 25 27 25 26 29 30 31 31 31 19 27 24 21 17 8 9 12 11 10 7 7 7 8 9 9
29 28 25 25 25 26 27 30 31 30 31 31 27 28 30 29 33 33 33 32 31 29 24 20 23 23 20 20 16 12 11 11 10 9 9 10 11 12
18 19 22 23 23 24 24 25 26 28 29 32 35 32 31 31 34 34 33 33 34 30 26 23 20 15 18 20 21 17 15 14 12 11 11 12 11 12
15 17 21 22 23 22 21 22 22 25 27 29 30 31 33 34 33 33 33 32 31 30 27 24 20 18 19 21 20 21 19 14 10 11 11 14 13 11
20 21 22 22 23 24 23 23 22 22 22 24 25 26 27 28 30 31 31 30 31 30 28 26 23 21 21 21 22 22 22 22 20 18 18 17 16 12
24 22 21 21 21 22 23 22 22 21 21 22 23 23 24 25 25 24 24 26 27 27 26 25 23 23 24 25 26 24 25 26 24 23 22 21 20 15
27 24 21 19 18 20 21 22 23 22 20 20 21 23 22 22 20 20 20 20 20 21 21 20 20 21 22 27 19 18 22 23 23 25 25 24 23 18
27 25 22 20 17 19 19 20 19 19 20 21 23 24 24 23 22 22 21 20 18 17 18 19 21 23 23 22 18 16 14 16 18 21 22 22 22 21
30 28 24 21 19 19 19 20 19 19 18 18 21 23 25 26 26 24 22 21 20 20 22 23 22 20 20 21 24 24 21 19 18 19 19 22 25 27
25 26 25 23 19 16 18 19 19 18 17 17 17 18 20 22 25 26 25 25 25 25 24 21 20 21 23 26 28 27 24 23 23 23 22 22 25 29
20 21 21 21 19 17 17 18 19 18 18 18 17 17 18 19 20 22 24 25 25 25 24 23 23 23 25 26 27 28 28 26 26 28 28 25 24 26
Wind_Direction
209 211 207 206 178 167 184 186 188 179 187 195 195 210 231 240 240 203 194 190 180 171 162 136 128 115 105 96 89 75 64 64 66 65 73 78 77 72
226 202 191 178 177 182 175 201 222 212 186 198 204 213 221 230 212 198 192 186 180 174 158 145 137 128 119 108 93 84 70 60 56 57 63 76 72 71
226 198 183 189 187 188 185 213 211 205 206 191 208 210 218 222 217 201 186 180 181 181 167 151 151 139 119 109 100 92 79 72 64 54 55 57 62 53
229 217 201 185 186 193 196 211 214 216 225 201 199 203 209 222 228 195 188 179 184 183 176 162 162 149 132 115 103 97 92 84 71 58 47 46 46 40
223 220 218 211 196 189 210 225 218 215 211 209 192 201 206 215 204 205 197 182 183 190 184 170 168 162 139 121 114 111 95 85 71 62 53 45 48 45
191 186 183 192 199 205 215 211 214 204 204 202 199 197 208 202 209 198 193 190 195 203 192 171 158 161 150 141 130 113 96 91 81 57 44 29 26 37
179 181 182 185 202 205 209 206 209 208 206 201 193 194 200 198 199 198 206 198 212 231 200 182 174 158 132 142 126 108 96 79 64 46 35 14 3 21
186 188 188 200 204 200 204 205 215 214 211 200 199 202 209 208 197 201 202 198 203 208 217 186 173 174 147 144 121 101 96 86 53 6 350 352 344 352
200 195 188 200 198 199 202 202 209 214 220 216 210 214 214 212 203 202 207 219 220 212 190 189 187 195 158 144 40 29 352 311 177 195 261 302 323 328
212 214 205 212 201 206 200 204 202 200 202 215 231 242 235 222 215 209 209 215 217 221 197 204 198 207 198 202 306 313 301 262 246 261 261 244 256 303
226 221 213 200 198 204 208 203 200 198 200 206 223 230 233 226 219 211 211 208 209 216 207 218 203 212 226 245 253 271 277 258 237 248 252 250 262 281
207 206 205 206 208 207 205 210 204 201 207 207 210 211 214 216 213 215 211 211 212 210 210 211 211 209 209 238 245 253 256 245 244 236 249 246 258 268
202 201 202 206 207 208 212 212 213 212 210 209 206 207 208 208 206 209 218 222 220 225 223 214 221 219 221 228 227 231 233 239 242 250 253 244 250 264
208 208 208 205 199 200 204 208 211 214 218 216 210 202 201 206 208 212 216 221 228 236 239 239 232 228 229 238 242 237 239 240 248 249 253 256 253 253
206 193 198 199 200 202 199 201 206 207 214 214 213 209 207 212 214 217 221 223 229 235 235 234 237 237 233 237 246 254 250 249 256 263 270 268 265 262
189 184 199 204 207 211 206 211 211 213 216 217 217 218 217 217 220 225 225 224 225 230 234 235 236 233 235 235 238 244 251 247 257 260 278 277 275 282
180 187 195 198 201 204 207 210 211 213 210 209 213 214 215 217 219 221 224 226 226 228 231 233 236 238 241 240 237 238 244 252 257 262 264 267 267 275
194 199 200 199 204 207 208 208 211 214 213 213 211 214 215 215 216 217 219 226 230 233 232 233 234 236 239 242 243 245 245 250 255 260 265 267 269 271
204 211 213 214 220 220 220 221 221 222 224 221 218 220 220 224 224 224 226 226 224 226 230 227 228 231 235 243 250 257 256 255 251 252 258 263 273 279
217 220 221 223 229 226 221 220 220 220 223 224 223 220 222 224 228 234 233 233 237 236 232 237 238 242 248 260 274 278 265 261 249 251 255 262 270 274
217 223 227 232 236 231 225 224 229 232 234 232 227 225 224 227 231 236 240 244 244 242 240 242 253 264 268 269 263 265 269 270 266 259 259 254 257 260
224 228 230 233 234 230 223 228 229 226 227 228 231 229 227 228 232 238 240 242 245 248 253 257 253 249 254 257 264 270 272 275 276 277 272 264 258 255
226 229 233 233 229 226 224 226 226 232 239 241 236 235 233 235 237 238 240 244 247 249 253 255 255 255 255 254 259 263 267 269 270 270 270 269 273 270